Regional Weather Roundup
Issued by NWS

Home | Current Version | Previous Version | Graphics & Text | Print | Product List | Glossary On
Versions: 1 2 3 4 5 6 7 8 9 10 11 12 13 14 15 16 17 18 19 20 21 22 23 24 25 26 27 28 29 30 31 32 33 34 35 36 37 38 39 40 41 42 43 44 45 46 47 48 49 50
000
ASUS44 KMEG 131410
RWRTN
TENNESSEE HOURLY STATE WEATHER ROUNDUP
NATIONAL WEATHER SERVICE MEMPHIS TN
800 AM CST SAT FEB 13 2016

TNZ002-004-019-021-049-052-054-088>092-131500-
WEST TENNESSEE

CITY           SKY/WX    TMP DP  RH WIND       PRES   REMARKS
MEMPHIS INTL   MOSUNNY   29  11  47 NE15      30.56R WCI  18
NWS MEMPHIS      N/A     26 N/A N/A MISG        N/A
JACKSON        CLOUDY    24  10  55 NE13      30.58R WCI  12
DYERSBURG      CLOUDY    23  10  58 NE12      30.62R WCI  12
UNION CITY     CLOUDY    19   9  63 N13       30.61R WCI   7
PARIS          MOSUNNY   18   7  62 N12       30.58R WCI   5
LEXINGTON      SUNNY     21   7  53 NE9       30.54S WCI  11
$$

TNZ008-025-027-028-033-062-065-066-131500-
NORTH MIDDLE TENNESSEE

CITY           SKY/WX    TMP DP  RH WIND       PRES   REMARKS
NASHVILLE      MOSUNNY   22   5  48 N9        30.56R WCI  12
CLARKSVILLE    SUNNY     19   7  59 N16       30.59R WCI   4
SMYRNA         SUNNY     21   7  55 N15       30.56R WCI   8
COOKEVILLE     SUNNY     19   7  58 N9        30.46R WCI   9
CROSSVILLE     MOSUNNY   19   6  57 N14G22    30.38R WCI   6
$$

TNZ061-075-076-078-094-096-097-131500-
SOUTH MIDDLE TENNESSEE

CITY           SKY/WX    TMP DP  RH WIND       PRES   REMARKS
FAYETTEVILLE   MOSUNNY   23  14  68 N10G18    30.48R WCI  12
TULLAHOMA      SUNNY     19  12  73 N12       30.47R WCI   7
WINCHESTER     SUNNY     21  12  68 N14       30.47R WCI   8
MCMINNVILLE    SUNNY     21   9  58 NW14      30.47R WCI   8
COLUMBIA       SUNNY     21  14  73 N10       30.52R WCI  10
SHELBYVILLE    SUNNY     23   9  54 N17       30.52R WCI   9
$$

TNZ017-018-042-046-047-131500-
NORTHEAST TENNESSEE

CITY           SKY/WX    TMP DP  RH WIND       PRES   REMARKS
TRI CITIES     CLOUDY    21   9  59 N9        30.35R WCI  11
$$

TNZ012-013-036-069-073-074-131500-
CENTRAL EAST TENNESSEE

CITY           SKY/WX    TMP DP  RH WIND       PRES   REMARKS
KNOXVILLE      MOSUNNY   25  10  53 N12       30.42R WCI  14
OAK RIDGE      SUNNY     24   7  48 NW9       30.46R WCI  14
GATLINBURG     CLOUDY    21  12  68 NW7       30.41R WCI  13
MORRISTOWN     PTSUNNY   23   9  54 N14       30.38R WCI  11
$$

TNZ083-085-099-131500-
SOUTHEAST TENNESSEE

CITY           SKY/WX    TMP DP  RH WIND       PRES   REMARKS
CHATTANOOGA    MOSUNNY   27  10  49 N17G24    30.45R WCI  14
$$

SKY/WX REPORTED AS FAIR MEANS FEW OR NO CLOUDS BELOW
12 THOUSAND FEET.




USA.gov is the U.S. government's official web portal to all federal, state and local government web resources and services.